www.pogodaiklimat.ru

Погода и климат >> Архив погоды >> Австралия >> Charleville Aero


ПОГОДА в Charleville Aero

  • Прогноз погоды в Charleville Aero
  • Монитор погоды в Charleville Aero
  • Климат города

АРХИВ ПОГОДЫ в Charleville Aero

Время (UTC), дата Ветер
(напр.,м/с)
 
Видим.   Явления Облачность Т
(С)
Тd
(С)
f
(%)
Тe
(С)
Тes
(С)
Комфортность P
(гПа)
Po
(гПа)
Тmin
(С)
Tmax
(С)
R
(мм)
R24
(мм)
S
(см)
11 11.12 С 3 н/о 6/0
[]
+31.5 +9.7 26 +31 +31 жарко 1011.4 977.4
12 11.12 В 2 н/о н/о +30.2 +9.7 28 +30 +30 жарко 1012.1 978.1
14 11.12 С 3 н/о н/о +27.4 +13.4 42 +29 +29 жарко 1012.6 978.6 +37.3
15 11.12 С 3 н/о н/о +26.3 +13.8 46 +28 +28 жарко 1011.9 977.9
17 11.12 В 2 н/о н/о +23.9 +14.0 54 +26 +26 жарко 1011.5 977.5
18 11.12 В 2 н/о н/о +23.2 +12.5 51 +26 +26 жарко 1011.4 977.4
20 11.12 С 3 н/о н/о +23.7 +12.7 50 +26 +26 жарко 1012.9 978.9
21 11.12 С 5 н/о н/о +26.3 +12.7 43 +28 +28 жарко 1013.6 979.6
23 11.12 С 4 н/о н/о +30.0 +11.5 32 +31 +31 жарко 1014.1 980.0
00 12.12 С 3 н/о н/о +31.4 +9.6 26 +31 +31 жарко 1013.8 979.8
02 12.12 В 5 н/о н/о +34.7 +6.1 17 +32 +32 жарко 1012.4 978.4 +22.7
03 12.12 В 7 н/о н/о +35.8 +5.1 15 +33 +33 жарко 1011.3 977.3
05 12.12 ЮВ 7 н/о н/о +37.1 +4.1 13 +34 +34 очень
жарко
1009.6 975.7
06 12.12 В 3 н/о н/о +37.3 +3.1 12 +34 +34 очень
жарко
1009.0 975.1
08 12.12 ЮВ 7 н/о 3/0
[]
+36.2 +3.4 13 +33 +33 жарко 1009.0 975.1
09 12.12 В 5 н/о н/о +34.6 +3.2 14 +32 +32 жарко 1009.4 975.5
11 12.12 В 4 н/о н/о +32.2 +7.1 21 +31 +31 жарко 1010.4 976.5
12 12.12 В 5 н/о н/о +31.2 +7.6 23 +30 +30 жарко 1010.9 977.0
14 12.12 СВ 3 н/о н/о +28.7 +7.9 27 +28 +28 жарко 1010.9 977.0 +37.6
15 12.12 СВ 3 н/о н/о +27.1 +8.0 30 +27 +27 жарко 1010.7 976.8
17 12.12 С 3 н/о н/о +25.1 +7.7 33 +25 +25 комфорт 1010.5 976.6
18 12.12 С 3 н/о н/о +24.1 +7.7 35 +24 +24 комфорт 1010.8 976.9
20 12.12 С 3 н/о 5/0
[]
+24.3 +7.4 34 +25 +25 комфорт 1012.1 978.1
21 12.12 С 5 н/о н/о +26.3 +7.8 31 +26 +26 жарко 1012.6 978.6
23 12.12 С 6 н/о н/о +30.9 +9.7 27 +30 +30 жарко 1012.9 978.9
00 13.12 СВ 7 н/о н/о +32.3 +7.9 22 +31 +31 жарко 1012.6 978.6
02 13.12 В 6 н/о 1/0
[]
+34.9 +3.5 14 +32 +40 жарко 1011.2 977.2 +23.6
03 13.12 Ю 4 н/о н/о +35.4 +2.8 13 +32 +32 жарко 1010.2 976.3
05 13.12 Ю 5 н/о н/о +35.9 +0.9 11 +32 +32 жарко 1007.9 974.1
06 13.12 С 4 н/о н/о +36.4 +2.5 12 +33 +33 жарко 1007.2 973.4
08 13.12 В 3 н/о н/о +36.5 +2.5 12 +33 +33 жарко 1007.1 973.3
09 13.12 В 3 н/о н/о +34.8 +2.3 13 +32 +32 жарко 1007.6 973.8
11 13.12 В 4 н/о н/о +32.2 +3.2 16 +30 +30 жарко 1008.9 975.0
12 13.12 СВ 4 н/о н/о +31.3 +4.2 18 +29 +29 жарко 1009.5 975.6
14 13.12 СВ 3 н/о н/о +28.4 +5.3 23 +27 +27 жарко 1009.5 975.6 +38.0
15 13.12 С 4 н/о н/о +27.7 +5.9 25 +27 +27 жарко 1009.6 975.7
17 13.12 СВ 4 н/о н/о +25.6 +5.8 28 +25 +25 комфорт 1008.7 974.8
18 13.12 СВ 3 н/о н/о +25.0 +5.7 29 +25 +25 комфорт 1009.0 975.1
20 13.12 С 5 н/о н/о +24.5 +7.2 33 +25 +25 комфорт 1010.3 976.4
21 13.12 С 7 н/о н/о +26.5 +8.9 33 +27 +27 жарко 1010.9 977.0
23 13.12 С 6 н/о н/о +31.1 +9.9 27 +31 +31 жарко 1010.9 977.0
00 14.12 С 6 н/о н/о +32.6 +8.1 22 +31 +31 жарко 1010.1 976.2
02 14.12 СВ 5 н/о н/о +35.4 +3.9 14 +32 +32 жарко 1008.8 974.9 +24.1
03 14.12 СВ 4 н/о н/о +36.0 +3.3 13 +33 +33 жарко 1007.7 973.9
05 14.12 З 2 н/о н/о +38.1 +2.5 11 +35 +35 очень
жарко
1006.0 972.2
06 14.12 В 5 н/о н/о +38.0 +2.5 11 +35 +35 очень
жарко
1005.3 971.5
08 14.12 В 2 н/о н/о +37.6 +2.1 11 +34 +34 очень
жарко
1005.4 971.6
09 14.12 В 2 н/о н/о +35.4 +1.7 12 +32 +32 жарко 1006.1 972.3
11 14.12 СВ 3 н/о н/о +29.1 +2.4 18 +27 +27 жарко 1006.7 972.9
12 14.12 СВ 4 н/о н/о +31.2 +0.6 14 +28 +28 жарко 1007.4 973.6
14 14.12 СВ 5 н/о н/о +30.1 +3.2 18 +28 +28 жарко 1007.3 973.5 +38.4
15 14.12 С 3 н/о н/о +29.0 +5.1 22 +28 +28 жарко 1007.1 973.3
17 14.12 СВ 4 н/о н/о +27.1 +6.0 26 +26 +26 жарко 1006.7 972.9
18 14.12 СВ 4 н/о н/о +25.5 +6.2 29 +25 +25 комфорт 1007.0 973.2
20 14.12 С 4 н/о н/о +25.8 +7.4 31 +26 +26 жарко 1008.9 975.0
21 14.12 С 6 н/о н/о +27.3 +8.7 31 +27 +27 жарко 1009.9 976.0
23 14.12 С 6 н/о н/о +33.2 +7.9 21 +32 +32 жарко 1010.0 976.1
00 15.12 С 6 н/о н/о +33.9 +6.3 18 +32 +32 жарко 1009.8 975.9
02 15.12 СВ 4 н/о н/о +36.9 +4.0 13 +34 +34 очень
жарко
1008.6 974.7 +25.4
03 15.12 Ю 3 н/о н/о +37.7 +3.4 12 +35 +35 очень
жарко
1007.5 973.7
05 15.12 Ю 4 н/о 1/0
[]
+39.0 +3.2 11 +36 +46 очень
жарко
1005.8 972.0
06 15.12 В 4 н/о н/о +39.7 +2.4 10 +36 +36 очень
жарко
1005.2 971.4
08 15.12 ЮВ 3 н/о н/о +38.7 +3.0 11 +35 +35 очень
жарко
1005.5 971.7
09 15.12 ЮВ 3 н/о н/о +36.9 +1.6 11 +33 +33 жарко 1006.3 972.5
11 15.12 В 2 н/о н/о +31.2 +2.4 16 +29 +29 жарко 1007.5 973.7
12 15.12 В 3 н/о н/о +33.2 +3.1 15 +30 +30 жарко 1008.4 974.5
14 15.12 Ю 3 н/о н/о +29.5 +4.9 21 +28 +28 жарко 1009.0 975.1 +40.1
15 15.12 Ю 1 н/о н/о +27.9 +5.5 24 +27 +27 жарко 1008.8 974.9
17 15.12 С 2 н/о н/о +27.3 +8.7 31 +27 +27 жарко 1008.9 975.0
18 15.12 СВ 3 н/о н/о +26.8 +7.8 30 +27 +27 жарко 1009.2 975.3
20 15.12 С 4 н/о н/о +26.3 +9.2 34 +27 +27 жарко 1010.7 976.8
21 15.12 С 6 н/о н/о +28.1 +11.6 36 +29 +29 жарко 1011.7 977.7
23 15.12 С 6 н/о н/о +31.7 +12.0 30 +32 +32 жарко 1012.5 978.5
00 16.12 С 5 н/о н/о +33.8 +11.0 25 +33 +33 жарко 1012.3 978.3
02 16.12 В 3 н/о н/о +36.4 +9.8 20 +35 +35 очень
жарко
1011.4 977.4 +25.4
03 16.12 В 4 н/о н/о +37.5 +9.2 18 +36 +36 очень
жарко
1010.4 976.5
05 16.12 С 2 н/о 1/0
[]
+38.1 +7.0 15 +36 +49 очень
жарко
1008.5 974.6
06 16.12 ЮВ 3 н/о н/о +38.6 +7.4 15 +36 +36 очень
жарко
1007.6 973.8
08 16.12 ЮВ 4 н/о 9/0
[]
+38.7 +6.4 14 +36 +37 очень
жарко
1007.4 973.6
09 16.12 Ю 3 н/о н/о +36.5 +8.4 18 +35 +35 очень
жарко
1008.1 974.2
11 16.12 СВ 3 н/о 1/0
[]
+33.3 +9.4 23 +32 +32 жарко 1008.8 974.9
12 16.12 В 3 н/о н/о +32.5 +9.3 24 +32 +32 жарко 1009.5 975.6
14 16.12 СВ 6 н/о н/о +31.8 +9.3 25 +31 +31 жарко 1009.7 975.8 +40.3
15 16.12 СВ 5 н/о н/о +30.9 +8.6 25 +30 +30 жарко 1009.3 975.4
17 16.12 С 3 н/о н/о +28.6 +8.8 29 +28 +28 жарко 1009.0 975.1
18 16.12 С 4 н/о н/о +27.8 +9.1 31 +28 +28 жарко 1009.3 975.4
20 16.12 С 4 н/о н/о +27.7 +10.0 33 +28 +28 жарко 1011.1 977.1
21 16.12 С 7 н/о н/о +29.0 +11.6 34 +30 +30 жарко 1012.0 978.0
23 16.12 С 6 н/о н/о +31.5 +13.7 34 +33 +33 жарко 1012.8 978.8
00 17.12 С 5 н/о н/о +33.7 +13.2 29 +34 +34 очень
жарко
1012.7 978.7
02 17.12 З 3 н/о н/о +35.9 +10.9 22 +35 +35 очень
жарко
1011.3 977.3 +27.0
03 17.12 С 4 н/о н/о +38.0 +9.6 18 +36 +36 очень
жарко
1010.0 976.1
05 17.12 В 6 н/о 1/0
[]
+40.3 +7.7 14 +38 +43 очень
жарко
1008.1 974.2
06 17.12 В 6 н/о н/о +39.4 +7.0 14 +37 +37 очень
жарко
1007.1 973.3
08 17.12 ЮЗ 8 3000 м туман 10/10 300 м
[]
+31.2 +14.4 36 +33 +33 жарко 1008.5 974.6
09 17.12 СЗ 3 н/о н/о +33.4 +14.9 33 +35 +35 душно 1007.6 973.8
11 17.12 В 3 н/о {туман} н/о +30.2 +20.4 56 +37 +37 очень
душно
1008.7 974.8
12 17.12 СВ 4 н/о н/о +32.2 +12.9 31 +33 +33 жарко 1009.4 975.5
14 17.12 С 5 н/о н/о +31.5 +12.8 32 +32 +32 жарко 1009.4 975.5 +40.9
15 17.12 С 5 н/о н/о +30.3 +13.6 36 +32 +32 жарко 1008.7 974.8
17 17.12 С 6 н/о н/о +28.9 +13.9 40 +31 +31 жарко 1008.8 974.9
18 17.12 С 4 н/о н/о +28.1 +12.8 39 +30 +30 жарко 1009.2 975.3
20 17.12 С 6 н/о 8/0
[]
+26.6 +10.7 37 +27 +28 жарко 1010.5 976.6
21 17.12 С 7 н/о н/о +27.4 +11.0 36 +28 +28 жарко 1011.6 977.6
23 17.12 С 6 н/о н/о +29.4 +11.9 34 +30 +30 жарко 1012.4 978.4
00 18.12 С 6 н/о н/о +31.4 +11.7 30 +32 +32 жарко 1011.7 977.7
02 18.12 С 5 н/о н/о +35.3 +11.0 23 +35 +35 очень
жарко
1009.5 975.6 +26.5
03 18.12 С 3 н/о н/о +36.2 +8.9 19 +35 +35 очень
жарко
1008.4 974.5
05 18.12 С 2 н/о н/о +38.2 +8.9 17 +36 +36 очень
жарко
1006.6 972.8
06 18.12 В 3 н/о н/о +39.9 +8.4 15 +38 +38 очень
жарко
1005.9 972.1
08 18.12 ЮЗ 2 н/о 8/0
[]
+38.7 +7.4 15 +36 +37 очень
жарко
1005.5 971.7

 

Местоположение метеостанции Charleville Aero (Квинсленд, Австралия): широта -26.41 долгота 146.26 высота над уровнем моря 303 м.

В архиве по умолчанию представлена погода в Charleville Aero за последнюю неделю. Архивные данные за месяц целиком и за предыдущие месяцы, начиная с января 2011 года, Вы можете получить, выбрав интересующий диапазон дат из раскрывающегося списка и нажав кнопку "Ввод!".

Внимание! Время в таблицах - всемирное. Для получения местного времени необходимо прибавить поправку, которая в Charleville Aero равна 10 ч.

Смотрите также архив погоды в соседних городах и на ближайших метеорологических станциях:

Погода в Blackall Airport (Квинсленд, Австралия) (237 км)
Погода в Roma Airport (Квинсленд, Австралия) (251 км)
Погода в St George Airport (Квинсленд, Австралия) (295 км)
Погода в Thargomindah Airport (Квинсленд, Австралия) (299 км)
Погода в Lochington (Квинсленд, Австралия) (304 км)
Погода в Rolleston Airport (Квинсленд, Австралия) (321 км)
Погода в Emerald Airport (Квинсленд, Австралия) (371 км)
Погода в Longreach Airport (Квинсленд, Австралия) (387 км)
Погода в Miles Constance Street (Квинсленд, Австралия) (391 км)
Погода в Bourke Airport Aws (Новый Южный Уэльс, Австралия) (404 км)

Пояснения к столбцам:

Ветер - указаны скорость ветра в м/с - средняя за 10 мин, порывы в срок и между сроками (в фигурных скобках) и направление, откуда дует ветер: С - северный, СВ - северо-восточный, В - восточный, ЮВ - юго-восточный, Ю - южный, ЮЗ - юго-западный, З - западный, СЗ - северо-западный.
Видимость - горизонтальная дальность видимости в метрах или километрах. При видимости от 1 до 10 км при отсутствии осадков обычно наблюдается дымка, при ухудшении видимости до 1 км и менее - туман. В сухую погоду видимость может ухудшаться дымом, пылью или мглою.
Явления - указаны атмосферные явления, наблюдавшиеся в срок или в последний час перед сроком; фигурными скобками обозначены явления, наблюдавшиеся между сроками (за 1-3 часа до срока); квадратными скобками обозначены град или гололедные отложения с указанием их диаметра в мм.
Облачность - указаны через наклонную черту общая и нижняя облачность в баллах и высота нижней границы облаков в метрах; квадратными скобками обозначены формы облаков: Ci - перистые, Cs - перисто-слоистые, Cc - перисто-кучевые, Ac - высококучевые, As - высокослоистые, Sc - слоисто-кучевые, Ns - слоисто-дождевые, Cu - кучевые, Cb - кучево-дождевые. Подробнее классификацию облаков см. в Атласе облаков (PDF).
T - Температура воздуха - температура, измеренная на высоте 2 м над землей.
Td - Температура точки росы - температура, при понижении до которой содержащийся в воздухе водяной пар достигнет насыщения.
f - Относительная влажность воздуха - влажноcть воздуха, измеренная на высоте 2 м над землей.
Te - Эффективная температура - температура, которую ощущает одетый по сезону человек в тени. Характеристика душности погоды. При расчете учитывается влияние влажности воздуха и скорости ветра на теплоощущения человека.
Tes - Эффективная температура на солнце - температура, которую ощущает человек, с поправкой на солнечный нагрев. Характеристика знойности погоды. Зависит от высоты солнца над горизонтом, облачности и скорости ветра. Ночью, в пасмурную погоду, а также при ветре 12 м/с и более поправка равна нулю.
P - Атмосферное давление - приведенное к уровню моря атмосферное давление.
Po - Атмосферное давление - измеренное на уровне метеостанции атмосферное давление.
Tmin - Минимальная температура - минимум температуры воздуха на высоте 2 м над землей.
Tmax - Максимальная температура - максимум температуры воздуха на высоте 2 м над землей.
R - Количество осадков - Количество выпавших осадков за период времени, мм. При наведении курсора мыши на число - период времени, за который выпало указанное количество осадков.
R24 - Количество осадков - Количество выпавших осадков за 24 часа, мм.
S - Снежный покров - Высота снежного покрова, см. При наведении курсора мыши на число - состояние снежного покрова и степень покрытия местности в баллах.